| time (UTC) | temp F | wind direction | speed MPH | gust MPH | rain 1hr in | rain 24hr in | rain mn in | humidity % | barometer mb |
| 20260903174202 | 88 | 225 | 7.0 | 7.0 | 0.00 | 0.00 | 0.02 | 61 | 1008.5 |
| 20260903172503 | 87 | 225 | 3.0 | 3.0 | 0.00 | 0.00 | 0.02 | 63 | 1008.5 |
| 20260903153903 | 81 | 225 | 5.0 | 5.0 | 0.00 | 0.00 | 0.02 | 74 | 1008.5 |
| 20260903131102 | 74 | 248 | 0.0 | 0.0 | 0.00 | 0.00 | 0.02 | 86 | 1008.8 |
| 20260903130003 | 74 | 270 | 0.0 | 0.0 | 0.02 | 0.00 | 0.02 | 86 | 1009.1 |
| 20260903125002 | 76 | 180 | 0.0 | 0.0 | 0.02 | 0.00 | 0.02 | 81 | 1009.1 |
| 20260903114302 | 77 | 135 | 2.0 | 2.0 | 0.00 | 0.00 | 0.00 | 75 | 1008.8 |
| 20260903113102 | 77 | 158 | 0.0 | 0.0 | 0.00 | 0.00 | 0.00 | 76 | 1008.8 |
| 20260903110402 | 77 | 113 | 1.0 | 1.0 | 0.00 | 0.00 | 0.00 | 74 | 1008.5 |
| 20260903105305 | 77 | 158 | 0.0 | 1.0 | 0.00 | 0.00 | 0.00 | 76 | 1008.5 |
| 20260903104102 | 77 | 135 | 0.0 | 0.0 | 0.00 | 0.00 | 0.00 | 78 | 1008.8 |
| 20260903103002 | 78 | 135 | 0.0 | 0.0 | 0.00 | 0.00 | 0.00 | 75 | 1009.1 |
| 20260903100802 | 80 | 135 | 6.0 | 6.0 | 0.00 | 0.00 | 0.00 | 65 | 1008.8 |
| 20260903095602 | 80 | 158 | 2.0 | 3.0 | 0.00 | 0.00 | 0.00 | 65 | 1008.5 |
| 20260903094502 | 80 | 135 | 1.0 | 4.0 | 0.00 | 0.00 | 0.00 | 65 | 1008.5 |
| 20260903093302 | 80 | 158 | 3.0 | 6.0 | 0.00 | 0.00 | 0.00 | 65 | 1008.5 |
| 20260903092102 | 81 | 248 | 1.0 | 4.0 | 0.00 | 0.00 | 0.00 | 65 | 1008.1 |
| 20260903091002 | 81 | 180 | 3.0 | 3.0 | 0.00 | 0.00 | 0.00 | 65 | 1008.1 |
| 20260903084803 | 81 | 158 | 4.0 | 4.0 | 0.00 | 0.00 | 0.00 | 63 | 1008.5 |
| 20260903083703 | 81 | 225 | 2.0 | 3.0 | 0.00 | 0.00 | 0.00 | 63 | 1008.1 |
| 20260903082602 | 82 | 113 | 3.0 | 5.0 | 0.00 | 0.00 | 0.00 | 63 | 1008.5 |
| 20260903081502 | 82 | 113 | 5.0 | 6.0 | 0.00 | 0.00 | 0.00 | 63 | 1008.5 |
| 20260903080302 | 81 | 180 | 2.0 | 5.0 | 0.00 | 0.00 | 0.00 | 65 | 1008.1 |
| 20260903074102 | 81 | 113 | 8.0 | 8.0 | 0.00 | 0.00 | 0.00 | 63 | 1008.5 |
| 20260903071702 | 82 | 90 | 3.0 | 3.0 | 0.00 | 0.00 | 0.00 | 63 | 1008.5 |
| 20260903070602 | 82 | 158 | 2.0 | 4.0 | 0.00 | 0.00 | 0.00 | 63 | 1008.8 |
| 20260903064402 | 82 | 180 | 2.0 | 5.0 | 0.00 | 0.00 | 0.00 | 63 | 1008.5 |
| 20260903063402 | 82 | 158 | 1.0 | 3.0 | 0.00 | 0.00 | 0.00 | 63 | 1008.5 |
| 20260903054903 | 88 | 248 | 3.0 | 3.0 | 0.00 | 0.00 | 0.00 | 55 | 1008.5 |
| 20260903015403 | 88 | 90 | 2.0 | 2.0 | 0.00 | 0.00 | 0.00 | 55 | 1008.1 |
| 20260903013702 | 88 | 158 | 2.0 | 3.0 | 0.00 | 0.00 | 0.00 | 55 | 1007.8 |
| 20260903000403 | 93 | 203 | 2.0 | 2.0 | 0.00 | 0.00 | 0.00 | 50 | 1007.8 |
| 20260902235305 | 94 | 225 | 4.0 | 6.0 | 0.00 | 0.00 | 0.00 | 50 | 1007.8 |
| 20260902234103 | 95 | 225 | 3.0 | 3.0 | 0.00 | 0.00 | 0.00 | 50 | 1007.8 |
| 20260902233003 | 95 | 113 | 4.0 | 6.0 | 0.00 | 0.00 | 0.00 | 49 | 1008.1 |
| 20260902231902 | 95 | 45 | 3.0 | 5.0 | 0.00 | 0.00 | 0.00 | 48 | 1008.1 |
| 20260902230804 | 96 | 203 | 7.0 | 7.0 | 0.00 | 0.00 | 0.00 | 48 | 1007.8 |